FW2111 Weather Reports


Display with metric or nautical units.
time (UTC)temp
F
wind
direction
speed
MPH
gust
MPH
rain 1hr
in
rain 24hr
in
rain mn
in
humidity
%
barometer
mb
20260904201124 62 79 6.0 13.0 0.00 1.07 0.45 83 1017.4
20260904200558 62 69 7.0 13.0 0.00 1.07 0.45 83 1017.3
20260904200031 63 81 5.0 12.0 0.00 1.07 0.45 83 1017.2
20260904195528 63 52 5.0 12.0 0.00 1.07 0.45 83 1017.2
20260904195018 63 94 5.0 12.0 0.00 1.07 0.45 83 1017.2
20260904194449 63 80 4.0 11.0 0.00 1.07 0.45 83 1017.2
20260904193922 62 96 5.0 11.0 0.00 1.07 0.45 83 1017.0
20260904193358 62 58 5.0 13.0 0.00 1.07 0.45 83 1017.0
20260904192855 63 59 5.0 13.0 0.00 1.07 0.45 83 1017.0
20260904192351 63 88 3.0 10.0 0.00 1.07 0.45 83 1016.9
20260904191830 63 81 2.0 9.0 0.00 1.07 0.45 83 1016.9
20260904191557 63 74 3.0 8.0 0.00 1.07 0.45 83 1016.7
20260904190824 63 105 3.0 8.0 0.00 1.07 0.45 83 1016.8
20260904190257 64 98 3.0 7.0 0.00 1.07 0.45 83 1016.8
20260904185754 64 111 3.0 8.0 0.00 1.07 0.45 83 1016.8
20260904185226 64 84 4.0 8.0 0.00 1.07 0.45 83 1016.8
20260904184722 64 96 3.0 8.0 0.00 1.07 0.45 83 1016.7
20260904184659 64 109 2.0 4.0 0.00 1.07 0.45 83 1016.7
20260904183631 64 96 2.0 4.0 0.00 1.07 0.45 83 1016.7
20260904183127 64 85 2.0 6.0 0.00 1.07 0.45 83 1016.6
20260904182624 65 113 3.0 6.0 0.00 1.07 0.45 83 1016.6
20260904182121 64 68 2.0 7.0 0.00 1.07 0.45 83 1016.6
20260904181838 64 75 3.0 7.0 0.00 1.07 0.45 84 1016.7
20260904181104 64 78 3.0 6.0 0.00 1.07 0.45 84 1016.6
20260904180547 64 34 4.0 11.0 0.00 1.07 0.45 84 1016.6
20260904180049 64 30 5.0 11.0 0.00 1.07 0.45 84 1016.3
20260904175546 64 70 4.0 10.0 0.00 1.07 0.45 84 1016.4
20260904174516 64 62 3.0 9.0 0.00 1.07 0.45 84 1016.6
20260904173948 64 40 3.0 7.0 0.00 1.07 0.45 84 1016.6
20260904173446 64 75 3.0 8.0 0.00 1.07 0.45 84 1016.5
20260904172919 64 89 4.0 10.0 0.00 1.07 0.45 84 1016.6
20260904172416 63 76 5.0 12.0 0.00 1.07 0.45 84 1016.6
20260904171848 63 36 4.0 12.0 0.00 1.07 0.45 84 1016.6
20260904171345 63 65 3.0 12.0 0.00 1.07 0.45 84 1016.6
20260904171050 63 78 4.0 12.0 0.00 1.07 0.45 84 1016.6
20260904170315 63 82 5.0 12.0 0.00 1.07 0.45 84 1016.5
20260904165750 63 48 4.0 12.0 0.00 1.07 0.45 84 1016.6
20260904165223 63 48 3.0 11.0 0.00 1.07 0.45 84 1016.6
20260904164951 63 55 3.0 8.0 0.00 1.07 0.45 84 1016.6
20260904164155 63 44 4.0 11.0 0.00 1.07 0.45 84 1016.6
20260904163921 63 67 4.0 11.0 0.00 1.07 0.45 84 1016.5
20260904163421 63 60 3.0 6.0 0.00 1.07 0.45 84 1016.5
20260904162625 63 101 3.0 9.0 0.01 1.07 0.45 84 1016.4
20260904162620 63 82 3.0 9.0 0.01 1.07 0.45 84 1016.5
20260904161551 62 61 3.0 8.0 0.01 1.07 0.45 84 1016.6
20260904161049 62 53 4.0 8.0 0.01 1.07 0.45 84 1016.5
20260904160520 62 97 4.0 11.0 0.01 1.07 0.45 84 1016.4
20260904160018 62 71 5.0 11.0 0.01 1.07 0.45 84 1016.4
20260904155452 62 98 5.0 9.0 0.01 1.07 0.45 84 1016.5
20260904155156 62 67 5.0 10.0 0.01 1.07 0.45 84 1016.6
20260904154421 62 77 5.0 10.0 0.01 1.07 0.45 84 1016.5
20260904153911 62 85 5.0 10.0 0.01 1.07 0.45 84 1016.4
20260904153408 62 102 6.0 12.0 0.01 1.07 0.45 84 1016.4
20260904152842 62 78 5.0 12.0 0.00 1.06 0.44 84 1016.4
20260904152340 62 69 5.0 11.0 0.00 1.06 0.44 84 1016.3
20260904151814 62 71 4.0 11.0 0.00 1.06 0.44 84 1016.2
20260904151312 62 70 4.0 9.0 0.01 1.06 0.44 84 1016.0
20260904150744 62 84 4.0 8.0 0.01 1.06 0.44 84 1016.0
20260904150453 62 74 3.0 8.0 0.01 1.06 0.44 84 1015.8
20260904150329 62 106 4.0 7.0 0.01 1.06 0.44 84 1015.8
20260904145222 62 88 2.0 8.0 0.01 1.06 0.44 84 1015.8
20260904144654 62 94 2.0 4.0 0.01 1.06 0.44 84 1015.5
20260904144130 62 95 3.0 8.0 0.01 1.06 0.44 84 1015.5
20260904143604 62 90 3.0 9.0 0.01 1.06 0.44 84 1015.5
20260904143104 62 113 3.0 9.0 0.01 1.06 0.44 84 1015.5
20260904142601 62 117 3.0 7.0 0.01 1.06 0.44 84 1015.4
20260904142334 62 105 3.0 7.0 0.01 1.06 0.44 84 1015.4
20260904141553 62 92 3.0 7.0 0.01 1.06 0.44 84 1015.2
20260904141054 62 96 2.0 6.0 0.00 1.05 0.43 84 1015.1
20260904140804 62 90 2.0 6.0 0.00 1.05 0.43 84 1015.1
20260904140034 62 52 2.0 7.0 0.00 1.05 0.43 84 1015.1
20260904135808 62 104 1.0 4.0 0.00 1.05 0.43 84 1015.0
20260904135016 62 68 2.0 5.0 0.00 1.05 0.43 84 1015.0
20260904134452 62 70 2.0 6.0 0.00 1.05 0.43 84 1014.9
20260904134217 62 73 2.0 6.0 0.00 1.05 0.43 84 1014.8
20260904133446 62 105 1.0 3.0 0.00 1.05 0.43 84 1014.8
20260904132925 62 61 1.0 5.0 0.00 1.05 0.43 84 1014.7
20260904132401 62 66 2.0 5.0 0.00 1.05 0.43 84 1014.6
20260904131900 62 66 2.0 5.0 0.00 1.05 0.43 84 1014.6
20260904131357 62 56 2.0 5.0 0.00 1.05 0.43 84 1014.5
20260904130856 62 62 2.0 5.0 0.00 1.05 0.43 84 1014.5
20260904130355 62 63 3.0 7.0 0.00 1.05 0.43 84 1014.4
20260904125851 62 61 4.0 9.0 0.00 1.05 0.43 84 1014.4
20260904125332 61 16 3.0 9.0 0.00 1.05 0.43 84 1014.2
20260904124835 61 67 3.0 10.0 0.00 1.05 0.43 84 1014.2
20260904124324 61 55 3.0 10.0 0.00 1.05 0.43 84 1014.1
20260904123821 61 74 3.0 5.0 0.00 1.05 0.43 84 1014.1
20260904123529 61 46 2.0 7.0 0.00 1.05 0.43 84 1014.0
20260904122736 61 62 2.0 7.0 0.00 1.05 0.43 84 1013.9
20260904122212 61 57 3.0 6.0 0.00 1.05 0.43 83 1013.8
20260904121922 61 56 2.0 6.0 0.00 1.05 0.43 83 1013.9
20260904121126 61 61 3.0 6.0 0.00 1.05 0.43 83 1013.8
20260904120852 61 64 3.0 6.0 0.00 1.05 0.43 83 1013.9
20260904120120 61 5 3.0 10.0 0.00 1.05 0.43 83 1013.8
20260904115609 61 27 3.0 9.0 0.00 1.05 0.43 83 1013.8
20260904115107 61 40 2.0 6.0 0.00 1.05 0.43 83 1013.6
20260904114542 61 40 3.0 6.0 0.00 1.05 0.43 83 1013.5
20260904114038 61 71 3.0 8.0 0.00 1.05 0.43 83 1013.5
20260904113536 61 92 2.0 8.0 0.00 1.05 0.43 83 1013.5
20260904113033 61 88 2.0 6.0 0.00 1.05 0.43 83 1013.4
20260904112507 61 77 2.0 5.0 0.00 1.05 0.43 83 1013.4
20260904111941 61 65 3.0 7.0 0.00 1.05 0.43 83 1013.3
20260904111416 61 63 2.0 6.0 0.00 1.05 0.43 82 1013.4
20260904110846 61 80 3.0 7.0 0.00 1.05 0.43 82 1013.3
20260904110321 61 101 4.0 10.0 0.00 1.05 0.43 82 1013.4
20260904105755 61 61 3.0 10.0 0.00 1.05 0.43 82 1013.3
20260904105227 61 63 2.0 8.0 0.00 1.05 0.43 82 1013.2
20260904104725 61 59 2.0 8.0 0.00 1.05 0.43 82 1013.2
20260904104224 61 69 3.0 7.0 0.00 1.05 0.43 82 1013.3
20260904103720 61 65 4.0 10.0 0.00 1.05 0.43 82 1013.4
20260904103153 61 66 4.0 11.0 0.00 1.05 0.43 82 1013.2
20260904102627 60 76 4.0 11.0 0.00 1.05 0.43 82 1013.2
20260904102100 60 46 3.0 8.0 0.00 1.05 0.43 82 1013.2
20260904101556 60 32 3.0 7.0 0.00 1.05 0.43 82 1013.1
20260904101030 60 32 3.0 7.0 0.00 1.05 0.43 81 1013.0
20260904100526 60 69 3.0 10.0 0.00 1.05 0.43 81 1013.2
20260904095959 60 79 3.0 10.0 0.00 1.05 0.43 81 1013.3
20260904095458 60 58 3.0 8.0 0.00 1.05 0.43 82 1013.2
20260904094931 60 67 3.0 10.0 0.00 1.05 0.43 82 1013.1
20260904094425 60 69 3.0 10.0 0.00 1.05 0.43 82 1013.0
20260904094154 60 74 3.0 6.0 0.00 1.05 0.43 82 1012.9
20260904093417 60 88 4.0 9.0 0.00 1.05 0.43 82 1012.8
20260904092851 60 49 4.0 10.0 0.00 1.05 0.43 82 1012.8
20260904092555 60 81 3.0 10.0 0.00 1.05 0.43 82 1012.8
20260904091819 60 61 4.0 13.0 0.00 1.05 0.43 82 1012.8
20260904091309 60 28 5.0 13.0 0.00 1.05 0.43 82 1013.1
20260904090806 60 66 4.0 11.0 0.00 1.05 0.43 82 1013.2
20260904090240 60 42 3.0 11.0 0.00 1.05 0.43 82 1013.1
20260904085736 61 35 3.0 9.0 0.01 1.05 0.43 82 1013.5
20260904085441 61 62 3.0 9.0 0.02 1.05 0.43 82 1013.6
20260904084707 61 66 3.0 9.0 0.02 1.05 0.43 82 1013.7
20260904084139 61 65 3.0 9.0 0.03 1.05 0.43 82 1013.7
20260904083637 61 70 3.0 8.0 0.06 1.05 0.43 82 1013.7
20260904083110 61 74 2.0 8.0 0.23 1.05 0.43 82 1013.9
20260904082546 61 81 2.0 5.0 0.31 1.05 0.43 81 1014.1
20260904082018 61 16 2.0 5.0 0.35 1.05 0.43 81 1014.3
20260904081452 61 88 3.0 6.0 0.35 1.05 0.43 80 1013.7
20260904080950 61 105 4.0 12.0 0.37 1.05 0.43 79 1013.6
20260904080447 61 110 4.0 12.0 0.41 1.05 0.43 77 1012.9
20260904075919 61 74 2.0 9.0 0.42 1.05 0.43 75 1013.3
20260904075415 61 94 1.0 4.0 0.41 1.04 0.42 74 1013.9
20260904074847 62 152 3.0 8.0 0.41 1.03 0.41 74 1014.0
20260904074343 62 153 5.0 13.0 0.40 1.02 0.40 73 1014.3
20260904073841 62 83 5.0 13.0 0.39 1.01 0.39 72 1013.6
20260904073313 62 63 4.0 8.0 0.26 0.88 0.26 71 1014.4
20260904072811 62 277 3.0 9.0 0.16 0.78 0.17 71 1015.3
20260904072244 62 40 4.0 14.0 0.08 0.70 0.09 70 1015.2
20260904071719 62 248 4.0 9.0 0.08 0.70 0.08 71 1015.1
20260904071151 62 86 5.0 17.0 0.07 0.69 0.07 70 1013.8
20260904070649 62 35 6.0 16.0 0.05 0.67 0.05 70 1014.8
20260904070122 62 257 7.0 22.0 0.01 0.63 0.01 70 1015.3
20260904065618 62 64 9.0 22.0 0.01 0.63 0.01 70 1013.8
20260904065052 62 75 11.0 26.0 0.00 0.62 0.00 69 1013.7
20260904064549 62 63 8.0 23.0 0.00 0.62 0.00 69 1013.3
20260904064021 62 106 8.0 19.0 0.00 0.62 0.00 69 1013.6
20260904063749 62 92 9.0 21.0 0.00 0.62 0.00 68 1013.8
20260904062953 62 23 10.0 21.0 0.00 0.62 0.00 68 1013.8
20260904062427 62 140 8.0 21.0 0.00 0.62 0.00 68 1014.0
20260904061923 62 94 7.0 15.0 0.00 0.62 0.00 67 1014.0
20260904061421 62 26 9.0 21.0 0.00 0.62 0.00 67 1014.2
20260904060853 62 36 9.0 21.0 0.00 0.62 0.00 67 1014.2
20260904060354 62 27 8.0 21.0 0.00 0.62 0.00 67 1014.2
20260904055847 62 85 9.0 21.0 0.00 0.62 0.00 68 1014.3
20260904055321 62 103 9.0 21.0 0.00 0.62 0.00 68 1014.2
20260904054821 62 68 8.0 21.0 0.00 0.62 0.00 68 1014.2
20260904054323 62 24 7.0 17.0 0.00 0.62 0.00 68 1014.4
20260904054027 62 69 9.0 23.0 0.00 0.62 0.00 68 1014.3
20260904053253 62 74 9.0 23.0 0.00 0.62 0.00 68 1014.2
20260904053002 62 61 8.0 18.0 0.00 0.62 0.00 68 1014.5
20260904052235 62 61 9.0 18.0 0.00 0.62 0.00 68 1014.6
20260904051715 62 80 10.0 22.0 0.00 0.62 0.00 68 1014.3
20260904051219 62 74 9.0 19.0 0.00 0.62 0.00 68 1014.2
20260904050653 62 78 8.0 19.0 0.00 0.62 0.00 68 1014.2
20260904050403 62 88 7.0 19.0 0.00 0.62 0.00 68 1014.4
20260904045626 62 81 8.0 16.0 0.00 0.62 0.62 68 1014.4
20260904045125 62 56 8.0 19.0 0.00 0.62 0.62 68 1014.4
20260904044558 62 60 7.0 19.0 0.00 0.62 0.62 69 1014.6
20260904044053 62 58 8.0 16.0 0.00 0.62 0.62 69 1014.6
20260904043550 62 86 8.0 16.0 0.00 0.62 0.62 69 1014.4
20260904043045 62 48 7.0 16.0 0.01 0.62 0.62 69 1014.4
20260904042518 62 117 7.0 19.0 0.02 0.62 0.62 69 1014.5
20260904041952 62 49 7.0 19.0 0.02 0.62 0.62 69 1014.4
20260904041427 62 115 6.0 13.0 0.02 0.62 0.62 70 1014.6
20260904040901 62 49 7.0 16.0 0.02 0.62 0.62 70 1014.5
20260904040333 62 355 7.0 20.0 0.02 0.62 0.62 70 1014.7
20260904035831 62 84 6.0 16.0 0.02 0.62 0.62 70 1014.8
20260904035306 62 34 6.0 16.0 0.02 0.62 0.62 70 1014.8
20260904034802 62 63 5.0 15.0 0.04 0.62 0.62 70 1015.0
20260904034301 62 39 7.0 14.0 0.07 0.62 0.62 71 1015.0
20260904033737 62 70 7.0 15.0 0.12 0.62 0.62 71 1014.7
20260904033214 62 30 5.0 13.0 0.26 0.61 0.62 71 1014.7
20260904032702 62 89 6.0 14.0 0.33 0.60 0.61 71 1014.8
20260904032200 62 111 8.0 15.0 0.43 0.60 0.60 71 1014.5
20260904031655 62 83 7.0 18.0 0.46 0.60 0.60 71 1014.8
20260904031156 62 19 7.0 14.0 0.50 0.60 0.60 71 1014.7
20260904030630 62 36 8.0 14.0 0.52 0.60 0.60 71 1014.8
20260904030107 62 0 8.0 18.0 0.56 0.60 0.60 71 1015.0
20260904025610 62 19 7.0 18.0 0.60 0.60 0.60 71 1015.0
20260904025046 62 28 6.0 18.0 0.59 0.59 0.59 71 1015.3
20260904024525 62 35 5.0 13.0 0.56 0.56 0.56 70 1015.6
20260904024027 62 88 7.0 15.0 0.53 0.53 0.54 70 1015.8
20260904023512 63 5 7.0 14.0 0.31 0.31 0.32 70 1015.4
20260904023508 63 21 8.0 15.0 0.43 0.43 0.44 70 1015.4
20260904022449 63 17 7.0 15.0 0.24 0.24 0.24 70 1015.5
20260904021950 64 38 8.0 16.0 0.16 0.16 0.16 69 1016.1
20260904021431 64 347 9.0 16.0 0.12 0.12 0.12 68 1016.0
20260904021204 64 5 8.0 15.0 0.10 0.10 0.10 67 1015.9
20260904020416 65 33 8.0 15.0 0.07 0.07 0.07 65 1014.9
20260904015856 66 68 8.0 19.0 0.00 0.00 0.01 62 1014.2
20260904015628 66 76 8.0 19.0 0.00 0.00 0.00 61 1014.3
20260904014854 66 80 9.0 21.0 0.00 0.00 0.00 61 1013.6
20260904014331 66 69 8.0 21.0 0.00 0.00 0.00 61 1013.6
20260904013829 66 11 8.0 22.0 0.00 0.00 0.00 61 1013.5
20260904013327 66 42 8.0 22.0 0.00 0.00 0.00 61 1013.6
20260904012830 66 72 7.0 21.0 0.00 0.00 0.00 61 1013.5
20260904012315 66 86 7.0 21.0 0.00 0.00 0.00 61 1013.7
20260904012041 66 32 8.0 15.0 0.00 0.00 0.00 62 1013.9
20260904011310 66 71 8.0 17.0 0.00 0.00 0.00 62 1013.7
20260904010748 66 64 8.0 19.0 0.00 0.00 0.00 62 1013.9
20260904010223 66 84 8.0 20.0 0.00 0.00 0.00 62 1013.7
20260904005700 66 57 8.0 20.0 0.00 0.00 0.00 62 1013.9
20260904005138 66 61 7.0 17.0 0.00 0.00 0.00 62 1014.2
20260904004611 66 78 7.0 17.0 0.00 0.00 0.00 62 1014.1
20260904004049 66 69 9.0 20.0 0.00 0.00 0.00 62 1013.9
20260904003544 66 42 9.0 20.0 0.00 0.00 0.00 62 1013.7
20260904003312 66 33 9.0 20.0 0.00 0.00 0.00 62 1013.9
20260904002539 66 62 9.0 22.0 0.00 0.00 0.00 63 1013.9
20260904002036 66 71 7.0 22.0 0.00 0.00 0.00 63 1013.8
20260904001741 66 22 8.0 27.0 0.00 0.00 0.00 63 1013.6
20260904001237 66 26 10.0 27.0 0.00 0.00 0.00 62 1013.5
20260904000503 66 82 11.0 22.0 0.00 0.00 0.00 62 1013.4
20260904000211 66 5 11.0 23.0 0.00 0.00 0.00 61 1013.5
20260903235435 67 78 11.0 23.0 0.00 0.00 0.00 61 1013.8
20260903234908 67 46 11.0 22.0 0.00 0.00 0.00 60 1013.6
20260903234400 67 60 10.0 25.0 0.00 0.00 0.00 59 1013.5
20260903233847 67 78 10.0 25.0 0.00 0.00 0.00 58 1013.5
20260903233344 68 61 11.0 21.0 0.00 0.00 0.00 56 1013.5
20260903232829 68 98 10.0 20.0 0.00 0.00 0.00 55 1013.5
20260903232600 69 35 12.0 26.0 0.00 0.00 0.00 54 1013.4
20260903231830 69 78 13.0 26.0 0.00 0.00 0.00 53 1013.2
20260903231304 69 129 13.0 24.0 0.00 0.00 0.00 53 1013.4
20260903230756 69 44 11.0 25.0 0.00 0.00 0.00 53 1013.4
20260903230254 69 64 10.0 25.0 0.00 0.00 0.00 53 1013.3
20260903225746 69 129 13.0 35.0 0.00 0.00 0.00 53 1013.2
20260903225244 69 50 13.0 35.0 0.00 0.00 0.00 52 1012.9
20260903224948 70 77 10.0 20.0 0.00 0.00 0.00 51 1012.7
20260903224214 70 36 11.0 23.0 0.00 0.00 0.00 52 1012.9
20260903223646 70 30 12.0 24.0 0.00 0.00 0.00 51 1012.6
20260903223143 70 93 11.0 24.0 0.00 0.00 0.00 50 1012.6
20260903222618 71 97 11.0 23.0 0.00 0.00 0.00 50 1012.5
20260903222052 71 48 11.0 30.0 0.00 0.00 0.00 51 1012.6
20260903221525 71 96 12.0 30.0 0.00 0.00 0.00 52 1012.3
20260903221022 71 65 13.0 28.0 0.00 0.00 0.00 51 1012.7
20260903220506 71 80 11.0 28.0 0.00 0.00 0.00 51 1012.8
20260903220006 72 63 12.0 26.0 0.00 0.00 0.00 50 1012.7
20260903215503 72 100 12.0 26.0 0.00 0.00 0.00 50 1012.7
20260903215006 72 71 12.0 20.0 0.00 0.00 0.00 49 1012.8
20260903214438 72 100 11.0 26.0 0.00 0.00 0.00 49 1012.8
20260903213937 72 55 11.0 23.0 0.00 0.00 0.00 48 1012.9
20260903213408 72 46 12.0 26.0 0.00 0.00 0.00 48 1012.8
20260903212906 72 72 11.0 26.0 0.00 0.00 0.00 47 1012.8
20260903212338 72 59 12.0 28.0 0.00 0.00 0.00 48 1013.1
20260903211842 73 55 10.0 20.0 0.00 0.00 0.00 47 1012.7
20260903211837 72 63 13.0 28.0 0.00 0.00 0.00 48 1012.9
20260903210830 73 60 8.0 21.0 0.00 0.00 0.00 46 1012.8
20260903210302 73 92 7.0 21.0 0.00 0.00 0.00 48 1012.7
20260903205800 73 65 8.0 14.0 0.00 0.00 0.00 48 1012.7
20260903205233 73 89 10.0 25.0 0.00 0.00 0.00 47 1012.9
20260903204729 73 86 10.0 25.0 0.00 0.00 0.00 46 1012.8
20260903204204 73 75 9.0 18.0 0.00 0.00 0.00 46 1012.8
20260903203701 73 79 9.0 22.0 0.00 0.00 0.00 47 1012.9
20260903203157 73 86 9.0 22.0 0.00 0.00 0.00 47 1013.0
20260903202642 73 72 7.0 0.0 0.00 0.00 0.00 49 1013.4
20260903202311 73 72 7.0 0.0 0.00 0.00 0.00 48 1013.4
20260903201723 74 24 7.0 16.0 0.00 0.00 0.00 48 1013.2
20260903201220 73 65 7.0 16.0 0.00 0.00 0.00 50 1013.3